Volver al catálogo

SPACEVAN-002

ActivoComunicacionesSSO
NORAD 68424·PAYLOAD·🇫🇷 France

Lanzado Mar 30, 2026 desde Vandenberg Space Force Base

Loading…

Próximos Pases (próximas 24 horas)

TLE

ActualizadoSource: Space-Track

Época: Sep 14, 2026, 14:44 UTC

1 68424U 26067J   26257.61448175  .00005250  00000-0  24968-3 0  9997
2 68424  97.4614 214.8418 0003590  81.2156 278.9485 15.19613826 25513

Sigue SPACEVAN-002 en tiempo real con AllMySat

Download on the App Store